Theta_e
317 317 314 311 312 310 310 310 308 306 304 303 303 301 300 298 296 296 295 293 292 292
313 313 310 309 309 309 309 308 306 304 303 301 300 299 297 296 293 294 293 292 291 291
311 308 308 307 307 307 307 306 303 302 300 299 297 296 295 293 293 292 291 291 291 291
310 309 307 306 306 305 304 302 302 301 298 297 296 296 294 294 293 292 292 292 292 291
309 309 307 304 305 305 303 302 301 300 298 297 296 296 295 294 294 292 291 291 291 290
307 307 307 306 305 303 302 301 301 299 297 296 296 296 295 295 293 293 292 291 290 289
305 307 307 306 304 303 302 300 300 299 298 297 296 295 295 294 293 292 292 291 290 289
304 306 305 303 302 301 301 301 300 299 297 296 295 295 293 292 291 290 288 288 288 288
302 304 304 301 299 299 299 299 299 297 296 294 295 292 292 291 289 288 287 285 285 287
300 301 301 300 297 296 295 297 296 295 293 292 292 291 291 289 288 287 285 285 284 282
297 297 299 296 295 293 293 293 293 292 291 290 289 290 290 288 287 285 284 283 282 281
293 291 295 293 291 290 291 291 291 289 288 286 287 289 288 286 284 282 282 282 282 281
291 290 290 290 287 288 290 289 288 286 286 287 286 288 287 285 283 281 281 281 282 282
288 288 287 285 283 286 286 287 286 285 285 286 286 286 287 285 283 282 281 281 280 281
Wind_Speed
10 5 4 7 9 10 11 14 16 14 12 12 11 8 8 7 6 7 6 7 5 4
6 6 4 5 7 6 2 1 9 12 12 11 12 11 10 8 9 9 8 7 8 7
5 4 4 2 5 4 2 6 9 10 12 12 12 13 12 10 10 12 7 7 9 8
4 2 6 4 4 2 2 3 4 7 13 14 13 13 13 12 13 14 11 8 8 6
4 4 4 5 5 8 5 5 6 6 8 13 14 14 15 14 12 14 12 11 9 9
7 7 8 10 10 9 10 11 10 10 11 12 15 14 13 13 13 13 14 13 11 10
7 8 7 6 10 10 10 11 11 11 12 12 13 13 12 12 12 11 10 10 10 11
6 5 3 4 5 7 10 11 12 11 10 10 10 9 12 11 11 11 11 9 8 7
5 5 5 5 5 8 8 10 10 10 12 11 8 13 17 15 12 12 12 11 9 8
2 5 6 5 6 6 8 9 11 11 12 12 10 20 20 20 11 12 12 12 12 11
5 6 4 5 6 6 7 9 9 9 11 11 7 20 21 19 12 10 12 12 13 13
3 5 7 8 7 6 9 8 10 10 11 12 12 23 23 17 11 11 11 10 11 12
4 6 7 6 7 5 7 6 6 9 8 12 15 24 23 19 10 12 10 10 10 17
5 6 6 4 3 5 5 8 8 9 9 12 15 17 24 24 12 11 10 9 8 7
Wind_Direction
306 303 308 217 208 200 200 191 176 174 163 155 155 155 148 141 135 135 131 132 122 120
12 328 41 5 354 312 90 276 165 158 150 142 139 140 138 132 129 124 121 112 114 112
334 16 69 206 159 225 279 202 156 150 137 134 134 134 129 126 124 117 114 121 134 118
310 60 203 165 105 33 104 112 145 163 143 137 138 139 130 132 136 130 138 142 132 132
213 216 213 134 165 169 168 137 150 154 149 145 147 151 150 156 163 149 152 156 146 160
199 213 212 191 184 178 174 158 160 160 166 168 167 167 167 164 162 161 160 159 158 157
244 221 228 204 186 189 178 162 167 177 179 177 169 168 167 162 161 160 155 157 164 165
286 271 260 242 185 173 174 186 177 168 176 170 171 170 163 159 155 144 135 130 126 131
247 243 243 220 198 176 185 178 171 174 160 161 171 169 160 153 151 144 139 134 120 130
358 271 224 209 185 183 174 172 174 166 154 169 172 162 159 148 146 144 142 139 132 121
355 327 258 202 208 180 168 165 173 166 160 154 159 158 153 141 136 131 133 138 140 131
348 305 275 201 191 170 159 175 170 165 153 147 151 156 150 134 128 126 127 129 130 128
302 289 275 234 180 176 174 173 151 140 149 153 155 155 149 133 133 134 134 128 132 139
278 279 263 207 157 147 135 138 142 140 141 148 152 156 146 141 144 143 141 138 136 139